COSMOS 2570

Satellite information

Favourite Embed

Satellite Type and Status

PAYLOADIN ORBIT

Key statistics

Satellite COSMOS 2570 at a glance.

Uptime

619

Days in orbit

Revolutions

≈ 14.0

Per day

Orbit

LEO

Low Earth Orbit

Inclination

67.1

Latest

Satellite identification and parameters

Extended collection of information and parameters for COSMOS 2570.

Object identification

Identified? True

Debris? False

Object name: COSMOS 2570

International designator: 2023-165A

Object number (NORAD): 58148

Object ID (CCSDS): 58148

Country: COMMONWEALTH OF INDEPENDENT STATES (CIS)

Current information (Y/N): Y

RCS size: LARGE

Orbital parameters

Period: 103.102 minutes

Inclination: 67.1467 deg

SMA: 7283.481 km

Apoapsis: 910.295 km

Periapsis: 900.397 km

RAAN: 49.357 deg

Eccentricy: 0.0006795

Argument of periapsis: 264.5712 deg

Mean anomaly: 95.4597 deg

Mean motion: 13.96671527 rev/day

Mean motion (dot): -0.00000037 rev/day2

B* drag term: 0.00002742 1/REarth

Two-line elements (TLE)

Creation date: July 6, 2025, 6:05 p.m.

Reference frame: TEME

Reference center: EARTH

Epoch: July 6, 2025, 2:23 p.m. UTC

TLE line 0: 0 COSMOS 2570

TLE line 1: 1 58148U 23165A 25187.59950777 -.00000037 00000-0 27420-4 0 9995

TLE line 2: 2 58148 67.1467 49.3570 0006795 264.5712 95.4597 13.96671527 86371

Live tracking on map

Real-time ground track for satellite COSMOS 2570.

In-orbit conjunctions

There are no conjunctions computed for COSMOS 2570, at the moment. Check back to stay up to date, as we update our databases every day.

Go to all conjunctions

Associated space launch

Note: Payload identity uncertain. Multiple other military payloads that are not identified may be on board. Lotos-S1 spacecraft is a part of the Liana constellation, designed for orbital electronic intelligence.

COSMOS 2570 was lifted into orbit during the mission ‘Soyuz 2.1b | Kosmos 2570 (Lotos-S1 #8)’, on board a Soyuz 2.1b space rocket.

The launch took place on Oct. 27, 2023, 6:04 a.m. from 43/3 (43L).

For more information about the launch, click the button.

Launch to space Soyuz 2.1b | Kosmos 2570 (Lotos-S1 #8)
Soyuz 2.1b | Kosmos 2570 (Lotos-S1 #8)

Agency: N/A

Status: Launch Successful

Launch date: Oct. 27, 2023, 6:04 a.m. UTC

Rocket: Soyuz 2.1b

Launch pad: 43/3 (43L)

Location: Plesetsk Cosmodrome, Russian Federation

...

Latest news about this satellite

There are no fresh news available about this satellite. Check back as we update our databases every day.


Newsletter sign-up

Weekly statistics, charts and insights to help you stay on top of the space industry.